Location: Tel Aviv
(32.0670°N, 34.7670°E)
Time: 05:26:37
(UTC+03:00)

Vanguard 2 - Pass Details

Date: 26 January 2022
Orbit: 552 x 2935 km, 32.9° (Epoch: 25 May)

Event Time Altitude Azimuth Distance (km) Brightness Sun altitude
Rises 19:19:02 0° 244° (WSW) 3,680 12.1 -27.5°
Reaches altitude 10° 19:21:12 10° 242° (WSW) 2,955 11.3 -28.0°
Maximum altitude 19:28:38 73° 159° (SSE) 1,613 8.9 -29.5°
Enters shadow 19:31:10 55° 97° (E) 1,986 9.1 -30.1°
Drops below altitude 10° 19:41:29 10° 78° (ENE) 4,886 - -32.3°
Sets 19:46:07 0° 77° (ENE) 6,212 - -33.2°
